Home   Weather   Minas   Past weeks

Flag for Uruguay Past Weather in Minas, Uruguay — Yesterday and Last 2 Weeks

Now
75 °F

Partly sunny.


Feels Like: 76 °F
Forecast: 69 / 86 °F
Wind: 12 mph from Southwest

Location: Capitan Corbeta

Current Time: Feb 28, 2017 at 9:31:10 am

Latest Report: Feb 28, 2017 at 9:00 am


Visibility: N/A

Pressure: 29.74 "Hg

Humidity: 78%

Dew Point: 68 °F

Location of MinasLocation

Past Weather in Minas — Graph

°F

Minas Temperature Yesterday

Maximum temperature yesterday: 90 °F (at 1:00 pm)
Minimum temperature yesterday: 73 °F (at 6:00 am)
Average temperature yesterday: 81 °F

High & Low Weather Summary for the Past Weeks

 TemperatureHumidityPressure
High90 °F (Feb 26, 4:00 pm)100% (Feb 13, 5:00 pm)30.07 "Hg (Feb 13, 5:00 pm)
Low66 °F (Feb 16, 4:00 am)43% (Feb 23, 3:00 pm)29.71 "Hg (Feb 13, 4:00 pm)
Average76 °F79%29.86 "Hg
* Reported Feb 13 8:00 am — Feb 28 8:00 am, Minas, Weather by CustomWeather, © 2017

Note: Actual official high and low records may vary slightly from our data, if they occured in-between our weather recording intervals... More about our weather records

Advertising

Minas Weather History for the Previous 24 Hours

Scroll right to see more
 ConditionsComfort  
Time TempWeatherWind HumidityBarometerVisibility
8:00 am
Tue, Feb 28
75 °FScattered showers. Partly sunny.6 mph78%29.71 "HgN/A
7:00 am73 °FPartly sunny.5 mph83%29.71 "HgN/A
6:00 am72 °FPassing clouds.6 mph88%29.71 "HgN/A
5:00 am72 °FClear.5 mph88%29.71 "Hg10 mi
4:00 am73 °FClear.8 mph89%29.74 "Hg10 mi
3:00 am73 °FClear.7 mph83%29.74 "Hg10 mi
2:00 am73 °FClear.6 mph83%29.74 "Hg10 mi
1:00 am75 °FClear.10 mph78%29.77 "Hg10 mi
12:00 am75 °FClear.6 mph83%29.77 "Hg10 mi
11:00 pm
Mon, Feb 27
77 °FClear.7 mph74%29.77 "Hg10 mi
10:00 pm77 °FClear.7 mph74%29.77 "Hg10 mi
9:00 pm79 °FPassing clouds.6 mph74%29.77 "HgN/A
8:00 pm81 °FLight rain. Passing clouds.12 mph70%29.74 "HgN/A
7:00 pm82 °FScattered showers. Scattered clouds.7 mph66%29.74 "HgN/A
6:00 pm84 °FScattered showers. Scattered clouds.13 mph62%29.77 "HgN/A
5:00 pm86 °FScattered clouds.14 mph49%29.77 "HgN/A
4:00 pm88 °FScattered clouds.14 mph55%29.77 "HgN/A
3:00 pm90 °FScattered clouds.12 mph49%29.80 "HgN/A
2:00 pm90 °FScattered clouds.7 mph49%29.83 "HgN/A
1:00 pm90 °FPassing clouds.9 mph49%29.83 "HgN/A
12:00 pm88 °FPassing clouds.9 mph52%29.86 "HgN/A
11:00 am86 °FPassing clouds.12 mph52%29.83 "HgN/A
10:00 am84 °FPassing clouds.9 mph55%29.89 "HgN/A
9:00 am79 °FPassing clouds.6 mph74%29.89 "HgN/A
Weather by CustomWeather, © 2017

See weather overviewHow to use our weather pages